EHI
11 9 7 6 6 6 7 8 8 6 5 5 4 3 3 3 2 1 0 0 0 0 0 0 0 0 0 0 0 0 0 0 0 0 0 0 0 0 0 0 0 0 0
12 10 8 7 7 6 6 7 6 4 4 5 4 3 3 3 3 2 1 0 0 0 0 0 0 0 0 0 0 0 0 0 0 0 0 0 0 0 0 0 0 0 0
11 10 10 9 8 7 6 5 4 3 4 5 4 3 3 4 3 3 1 1 1 0 0 0 0 0 1 0 0 0 0 0 0 0 0 0 0 0 0 0 0 0 0
9 10 11 11 10 8 6 6 4 3 4 6 7 6 5 5 4 3 3 2 2 1 0 0 0 0 0 0 0 0 0 0 0 0 0 0 0 0 0 0 0 0 0
8 10 12 13 12 9 7 7 5 3 4 7 9 9 8 7 6 4 3 3 3 2 1 0 0 1 1 0 0 0 0 0 0 0 0 0 0 0 0 0 0 0 0
8 10 12 12 11 8 6 6 5 4 3 5 8 10 10 9 8 6 4 3 3 3 2 1 1 2 2 1 0 0 0 0 0 0 0 0 0 0 0 0 0 0 0
8 9 11 11 9 6 4 3 2 3 3 4 7 10 11 10 9 8 6 4 3 3 3 3 2 3 2 1 0 0 0 0 0 0 0 0 0 0 0 0 0 0 0
5 7 9 10 10 9 5 3 3 3 4 4 6 9 10 10 10 9 7 6 4 3 3 3 3 2 2 1 1 1 0 0 0 0 0 0 0 0 0 0 0 0 0
3 4 5 7 10 10 8 5 4 5 5 5 6 7 9 9 9 8 7 6 4 3 3 3 3 2 2 2 2 1 1 0 0 0 0 0 0 0 0 0 0 0 0
2 3 3 4 5 7 7 6 4 4 4 4 4 5 6 8 9 8 7 6 4 3 3 3 3 3 3 3 3 3 2 1 0 0 0 0 0 0 0 0 0 0 0
1 2 3 3 3 4 5 4 2 2 3 3 3 3 5 7 9 8 7 6 5 4 3 3 3 3 3 3 3 3 3 2 1 0 0 0 0 0 0 0 0 0 0
0 1 2 3 3 3 4 3 2 1 1 1 2 3 5 7 7 6 5 6 5 4 3 3 3 3 3 3 3 3 3 2 1 0 0 0 0 0 0 0 0 0 0
1 1 3 3 3 3 3 3 3 2 2 1 2 3 5 6 5 3 3 5 6 5 4 3 3 3 3 3 3 3 3 3 1 0 0 0 0 0 0 0 0 0 0
2 3 3 3 3 2 2 2 3 3 3 3 3 3 2 2 2 2 3 4 5 5 5 4 3 3 4 4 3 3 3 3 2 1 0 0 0 0 0 0 0 0 0
3 3 3 3 3 2 2 2 3 3 4 4 3 2 1 0 0 1 2 3 4 5 5 4 3 4 5 5 4 3 3 3 2 1 0 0 0 0 0 0 0 0 0
2 2 2 2 2 2 2 2 2 4 5 5 3 2 0 0 0 0 1 2 3 4 4 4 4 5 6 6 5 4 3 3 2 1 0 0 0 0 0 0 0 0 0
1 1 1 1 1 1 1 1 2 4 6 6 4 2 1 1 1 0 0 1 2 3 4 4 4 5 5 4 3 3 3 3 2 1 0 0 0 0 0 0 0 0 0
0 0 0 0 0 0 0 0 1 3 5 5 3 2 2 2 1 0 0 1 1 2 4 5 4 5 5 2 1 2 3 3 2 1 0 0 0 0 0 0 0 0 0
0 0 0 0 0 0 1 1 1 2 3 4 3 3 3 3 2 1 0 1 1 1 2 4 4 5 4 2 0 1 3 3 3 1 0 0 0 0 0 0 0 0 0
0 0 0 0 0 0 1 2 1 1 2 3 3 3 4 4 3 2 1 1 1 1 1 2 3 4 4 1 0 1 2 3 3 2 1 0 0 0 0 0 0 0 0
0 0 0 0 0 0 0 1 1 0 1 2 2 3 3 3 2 3 2 1 2 2 2 2 2 2 2 1 0 1 2 3 3 3 2 1 0 0 0 0 0 0 0
0 0 0 0 0 0 0 0 0 0 0 1 1 1 1 1 1 2 2 2 3 3 3 3 1 0 0 0 0 0 1 2 3 3 2 1 0 0 0 0 0 0 0
0 0 0 0 0 0 0 0 0 0 0 0 0 0 0 0 0 1 1 2 2 3 3 3 1 0 0 0 0 0 0 1 1 2 2 1 0 0 0 0 0 0 0
0 0 0 0 0 0 0 0 0 0 0 0 0 0 0 0 0 0 0 1 1 1 2 2 1 0 0 0 0 0 0 0 0 1 1 0 0 0 0 0 0 0 0
0 0 0 0 0 0 0 0 0 0 0 0 0 0 0 0 0 0 0 0 0 0 1 1 1 0 0 0 0 0 0 0 0 0 0 0 0 0 0 0 0 0 0
0 0 0 0 0 0 0 0 0 0 0 0 0 0 0 0 0 0 0 0 0 0 0 0 0 0 0 0 0 0 0 0 0 0 0 0 0 0 0 0 0 0 0
Wind_Speed
6 6 6 5 4 3 3 4 5 4 3 2 2 2 1 1 1 1 2 2 2 3 2 2 2 2 3 2 2 2 2 1 1 2 2 2 3 3 2 2 2 3 3
5 5 5 5 4 4 3 4 4 4 4 3 2 2 2 1 2 1 1 1 2 2 2 2 2 3 2 2 2 2 1 1 1 1 1 1 2 2 2 1 2 2 2
6 7 5 5 5 4 3 4 4 4 4 4 2 2 2 2 1 1 1 1 1 2 2 2 2 2 2 2 1 1 1 1 1 1 1 1 1 0 1 1 2 2 2
4 5 5 5 5 4 4 4 3 4 4 4 3 2 2 2 2 2 2 2 1 1 2 2 2 2 2 2 1 2 1 1 0 1 1 1 2 2 0 1 1 2 2
4 4 4 4 4 4 3 3 3 3 3 3 4 3 2 2 2 2 2 2 1 1 2 2 2 2 2 2 1 1 1 1 1 0 1 1 1 0 2 0 1 1 1
4 4 4 4 4 3 3 2 2 2 3 3 4 4 3 3 3 2 2 2 1 1 2 2 2 2 2 2 2 1 1 1 1 1 1 1 0 0 1 1 1 0 0
4 4 5 4 3 3 2 2 3 2 2 2 3 4 4 3 3 3 2 2 1 1 2 1 1 2 2 2 2 1 2 2 1 1 1 1 0 1 1 1 0 0 0
4 4 4 4 3 3 2 2 3 3 2 2 2 3 4 2 2 2 2 2 2 2 2 2 1 1 1 1 2 2 2 2 1 1 1 1 1 0 1 1 1 0 1
4 4 4 4 3 3 2 1 1 2 2 2 2 1 2 3 2 2 2 2 2 2 3 2 2 1 1 1 1 1 2 1 1 2 2 1 1 1 0 1 2 2 1
4 4 3 3 3 3 2 2 1 1 1 2 2 2 2 2 2 2 1 1 2 2 3 2 2 2 2 1 1 1 1 1 1 1 2 1 1 1 1 1 0 1 2
4 4 3 3 2 3 2 2 1 1 1 1 1 2 2 1 1 1 2 2 1 2 2 2 2 2 2 2 2 2 2 2 2 2 3 3 2 2 1 1 1 0 1
4 4 4 3 2 2 2 2 1 1 1 0 1 0 1 2 2 1 2 2 2 2 2 3 2 2 1 2 2 2 2 2 2 2 2 2 2 2 2 2 2 2 2
4 4 4 3 2 1 1 1 1 1 1 1 1 2 1 1 0 1 1 1 1 1 2 2 2 1 1 0 1 1 1 1 2 2 2 2 2 2 2 2 2 2 1
3 4 3 3 2 1 1 1 1 1 1 1 1 2 1 1 1 1 0 0 0 1 1 2 2 2 2 1 1 1 1 2 2 2 2 2 2 2 1 2 2 2 1
2 3 3 2 2 2 1 1 1 1 1 1 1 1 2 2 1 1 1 1 0 0 1 1 1 2 2 1 1 1 1 1 1 1 1 2 2 2 1 1 1 1 1
2 2 2 2 1 1 1 1 1 1 1 1 1 1 1 2 2 1 1 1 1 1 1 0 1 1 1 1 1 0 1 1 1 2 2 2 2 2 2 2 2 1 2
1 2 2 2 1 1 1 1 1 0 1 1 1 0 1 1 2 2 2 1 1 1 1 1 1 1 1 2 2 1 1 1 2 2 2 1 1 2 2 2 3 4 4
2 2 1 1 0 0 0 0 1 1 1 0 0 0 0 0 1 2 2 2 1 1 1 1 1 1 1 2 2 2 2 2 2 2 1 1 1 2 2 2 2 3 3
2 1 1 1 1 1 1 0 1 1 1 1 0 0 0 0 0 1 2 2 2 1 1 1 1 2 2 3 3 2 1 2 3 2 1 1 2 2 2 2 2 2 2
2 1 1 1 1 1 1 1 1 1 0 0 0 0 0 1 1 1 2 2 2 1 1 1 1 1 1 2 2 3 1 2 2 2 2 2 2 2 3 3 3 3 3
1 1 1 0 1 1 1 1 1 0 0 0 0 1 1 1 1 1 1 1 2 2 1 1 1 1 0 0 2 3 2 2 2 2 2 2 1 2 3 3 3 4 3
1 1 1 1 1 0 1 1 1 0 0 1 1 1 1 1 1 0 1 1 1 1 1 1 1 1 0 1 1 3 4 3 2 2 2 2 2 2 2 2 2 2 1
1 1 1 1 1 0 1 1 1 0 0 1 1 1 1 1 1 1 1 1 1 1 1 1 1 1 1 1 2 3 5 5 3 3 4 4 3 2 2 2 2 1 1
1 0 1 1 0 0 0 1 1 1 1 1 1 1 1 1 1 0 0 0 0 0 1 1 1 1 1 1 2 2 2 4 4 3 3 4 3 3 2 2 1 1 2
0 1 1 1 1 0 0 0 1 1 1 1 1 1 1 1 0 0 0 0 0 1 1 1 1 1 2 2 3 2 2 2 2 2 1 1 0 1 1 1 1 1 1
1 0 1 1 1 0 0 0 0 1 1 1 1 1 1 0 0 0 0 0 1 1 1 2 2 2 3 4 4 5 5 4 2 1 1 1 1 2 2 2 1 1 1
Wind_Direction
175 162 159 156 154 144 135 130 134 132 126 123 124 123 114 94 92 88 85 86 86 88 83 77 74 75 85 82 75 64 52 38 66 71 49 37 68 80 69 40 51 67 73
153 149 150 152 158 152 142 136 141 141 132 128 138 146 137 130 116 101 85 88 85 92 116 112 103 94 94 78 74 73 49 351 31 97 91 61 24 21 83 74 64 60 55
152 147 150 155 155 158 154 151 145 141 140 139 137 130 119 120 107 135 122 125 142 145 124 112 116 121 112 108 109 111 86 5 345 52 94 109 132 330 9 81 84 78 61
122 133 144 148 154 152 142 143 143 138 142 145 149 153 151 147 166 151 149 154 146 133 127 123 121 123 125 138 184 147 135 122 332 359 32 101 141 134 42 348 67 116 100
104 111 128 134 136 133 134 139 140 137 142 148 144 153 143 153 145 128 140 158 157 160 142 132 129 129 136 153 184 151 169 156 174 149 49 17 12 117 129 208 310 42 88
97 99 96 91 98 108 117 127 136 140 150 157 159 157 153 163 154 160 168 179 163 163 152 156 162 158 162 171 175 173 167 186 190 151 139 161 153 271 127 155 210 148 175
103 100 103 96 92 107 129 143 141 147 162 172 166 162 167 172 169 171 176 179 163 161 183 174 180 174 174 175 169 174 182 196 188 183 188 167 190 191 133 124 178 95 196
98 100 107 111 111 108 122 154 153 165 177 183 183 173 162 164 163 175 174 171 174 179 176 179 182 190 181 174 164 173 188 191 186 185 160 154 217 154 154 154 136 87 343
102 104 108 115 118 112 98 79 121 146 166 179 183 166 164 171 187 205 193 175 183 175 164 173 181 197 194 191 168 172 200 181 175 178 171 178 185 188 194 148 149 149 166
111 105 107 107 120 124 124 106 78 97 178 169 172 177 197 186 186 190 197 179 179 167 150 174 192 196 187 190 185 163 230 169 174 161 162 179 187 177 166 160 178 151 162
113 106 92 88 107 120 124 127 121 77 45 25 195 190 183 178 175 192 197 195 186 175 164 174 188 206 203 186 181 195 218 197 200 200 182 194 181 169 187 174 171 216 153
116 115 110 101 83 87 117 131 133 115 106 55 2 300 189 178 184 203 202 195 190 184 169 166 180 202 215 213 201 205 212 204 213 220 199 197 179 185 194 183 195 208 201
113 110 110 112 101 75 65 95 92 85 66 42 29 31 37 47 312 260 234 210 183 177 175 163 167 188 198 246 260 212 237 219 215 225 227 209 176 194 198 183 196 208 210
119 115 116 118 111 107 74 46 47 28 15 45 47 37 26 4 329 316 352 271 190 182 168 168 171 178 184 185 224 216 246 241 234 224 210 187 176 183 196 185 199 192 179
123 126 129 127 132 133 116 66 31 12 19 63 60 40 16 357 357 341 330 323 56 266 215 179 171 177 178 177 187 243 254 250 245 237 212 164 143 149 160 175 215 199 181
146 145 145 136 134 130 135 196 204 187 129 103 68 45 24 351 0 344 325 353 343 280 259 182 173 155 175 146 172 269 248 239 249 249 240 201 175 191 205 228 234 222 201
128 137 146 145 153 162 173 235 238 196 160 147 129 93 32 5 354 346 345 338 310 304 299 259 189 167 171 147 167 248 270 259 247 245 246 247 187 175 194 223 241 245 245
124 107 92 81 77 172 189 224 205 185 194 191 171 141 125 3 358 350 333 315 299 296 283 267 234 214 194 180 195 230 230 252 255 243 229 217 216 218 187 190 220 235 236
125 109 101 83 44 21 17 14 196 201 203 216 234 131 129 300 316 304 303 291 286 280 284 279 253 223 205 199 214 211 229 253 265 259 231 207 215 240 222 199 228 241 262
103 98 89 30 37 16 8 314 249 228 204 144 329 322 292 258 241 260 281 294 285 279 280 287 278 249 201 185 198 200 217 248 266 267 258 252 250 242 211 205 216 226 234
111 117 118 92 62 10 337 295 287 274 4 25 326 284 266 258 247 253 270 281 285 292 294 305 315 353 353 168 186 199 220 244 258 263 264 269 271 242 225 221 214 222 218
119 123 131 136 101 11 295 278 277 271 173 198 244 263 266 275 285 283 280 274 272 283 287 297 303 296 316 31 244 236 239 266 258 265 268 267 264 253 238 229 253 231 206
110 123 151 188 157 128 305 276 292 331 173 208 230 239 249 274 287 250 263 283 289 275 284 290 291 299 312 326 304 278 265 271 268 270 286 287 266 256 238 248 254 233 178
100 104 186 233 210 143 280 307 349 317 257 238 244 239 233 243 277 310 300 322 301 279 279 285 286 297 314 347 338 308 284 284 282 290 300 298 272 268 257 248 229 211 193
213 159 219 235 258 76 2 3 357 317 282 268 270 281 258 218 202 75 343 289 158 191 246 267 265 274 281 291 318 315 291 285 280 297 273 275 273 259 245 219 218 208 201
324 252 254 261 274 268 247 286 301 287 287 290 287 280 281 257 186 164 321 303 228 192 233 258 269 279 282 290 296 304 306 302 302 291 255 228 208 224 235 225 227 221 225